Location: Bonningues
(50.7927°N, 2.0150°E)
Time: 17:42:23
(UTC+00:00)

ERBS - Pass Details

Date: 08 August 2020
Orbit: 413 x 420 km, 57.0° (Epoch: 24 September)

Event Time Altitude Azimuth Distance (km) Brightness Sun altitude
Rises 20:28:39 0° 250° (WSW) 2,353 6.5 -9.3°
Reaches altitude 10° 20:30:45 10° 254° (WSW) 1,491 5.5 -9.5°
Maximum altitude 20:34:02 56° 334° (NNW) 499 3.0 -9.9°
Drops below altitude 10° 20:37:20 10° 54° (NE) 1,493 4.9 -10.3°
Sets 20:39:27 0° 59° (ENE) 2,358 5.9 -10.6°
